| time (UTC) | temp F | wind direction | speed MPH | gust MPH | rain 1hr in | rain 24hr in | rain mn in | humidity % | barometer mb |
| 20260503191159 | 70 | 270 | 0.0 | 6.0 | 0.00 | 0.00 | 0.00 | 55 | 1021.2 |
| 20260503190655 | 71 | 283 | 0.0 | 6.0 | 0.00 | 0.00 | 0.00 | 54 | 1021.2 |
| 20260503190152 | 70 | 134 | 6.0 | 9.0 | 0.00 | 0.00 | 0.00 | 54 | 1021.3 |
| 20260503185649 | 70 | 214 | 0.0 | 5.0 | 0.00 | 0.00 | 0.00 | 52 | 1021.3 |
| 20260503185144 | 70 | 285 | 1.0 | 2.0 | 0.00 | 0.00 | 0.00 | 50 | 1021.4 |
| 20260503184639 | 71 | 297 | 1.0 | 2.0 | 0.00 | 0.00 | 0.00 | 48 | 1021.6 |
| 20260503184136 | 73 | 308 | 2.0 | 3.0 | 0.00 | 0.00 | 0.00 | 49 | 1021.4 |
| 20260503183632 | 72 | 286 | 0.0 | 2.0 | 0.00 | 0.00 | 0.00 | 49 | 1021.6 |
| 20260503183130 | 71 | 291 | 0.0 | 3.0 | 0.00 | 0.00 | 0.00 | 50 | 1021.7 |
| 20260503182628 | 70 | 214 | 3.0 | 5.0 | 0.00 | 0.00 | 0.00 | 48 | 1021.5 |
| 20260503182126 | 71 | 254 | 0.0 | 4.0 | 0.00 | 0.00 | 0.00 | 47 | 1021.8 |
| 20260503181623 | 72 | 336 | 0.0 | 4.0 | 0.00 | 0.00 | 0.00 | 49 | 1021.7 |
| 20260503181120 | 69 | 195 | 0.0 | 2.0 | 0.00 | 0.00 | 0.00 | 48 | 1021.7 |
| 20260503180617 | 70 | 312 | 2.0 | 3.0 | 0.00 | 0.00 | 0.00 | 55 | 1021.6 |
| 20260503180115 | 70 | 280 | 2.0 | 5.0 | 0.00 | 0.00 | 0.00 | 51 | 1021.8 |
| 20260503175611 | 72 | 8 | 0.0 | 3.0 | 0.00 | 0.00 | 0.00 | 50 | 1021.8 |
| 20260503175108 | 69 | 180 | 2.0 | 3.0 | 0.00 | 0.00 | 0.00 | 48 | 1022.0 |
| 20260503174605 | 73 | 172 | 0.0 | 2.0 | 0.00 | 0.00 | 0.00 | 48 | 1021.9 |
| 20260503174102 | 71 | 270 | 1.0 | 4.0 | 0.00 | 0.00 | 0.00 | 52 | 1021.9 |
| 20260503173557 | 70 | 114 | 1.0 | 3.0 | 0.00 | 0.00 | 0.00 | 50 | 1021.8 |
| 20260503173054 | 70 | 15 | 0.0 | 3.0 | 0.00 | 0.00 | 0.00 | 46 | 1021.7 |
| 20260503172551 | 70 | 283 | 0.0 | 2.0 | 0.00 | 0.00 | 0.00 | 52 | 1022.1 |
| 20260503172048 | 71 | 287 | 2.0 | 4.0 | 0.00 | 0.00 | 0.00 | 50 | 1022.1 |
| 20260503171544 | 70 | 270 | 0.0 | 4.0 | 0.00 | 0.00 | 0.00 | 52 | 1022.3 |
| 20260503171042 | 71 | 263 | 3.0 | 3.0 | 0.00 | 0.00 | 0.00 | 50 | 1022.2 |
| 20260503170538 | 70 | 235 | 0.0 | 5.0 | 0.00 | 0.00 | 0.00 | 50 | 1022.3 |
| 20260503150931 | 66 | 161 | 4.0 | 5.0 | 0.00 | 0.00 | 0.00 | 55 | 1022.8 |
| 20260503150427 | 67 | 250 | 3.0 | 4.0 | 0.00 | 0.00 | 0.00 | 56 | 1022.8 |
| 20260503131320 | 59 | 0 | 2.0 | 5.0 | 0.02 | 0.00 | 0.00 | 91 | 1022.2 |
| 20260503130818 | 58 | 294 | 2.0 | 5.0 | 0.00 | 0.00 | 0.00 | 95 | 1022.1 |
| 20260503130315 | 58 | 307 | 2.0 | 3.0 | 0.00 | 0.00 | 0.00 | 98 | 1022.2 |
| 20260503110708 | 49 | 99 | 0.0 | 0.0 | 0.00 | 0.00 | 0.00 | 99 | 1021.0 |
| 20260503110206 | 49 | 99 | 0.0 | 0.0 | 0.00 | 0.00 | 0.00 | 99 | 1021.1 |
| 20260503100132 | 48 | 352 | 0.0 | 0.0 | 0.00 | 0.00 | 0.00 | 99 | 1020.0 |
| 20260503081522 | 50 | 291 | 0.0 | 1.0 | 0.00 | 0.00 | 0.00 | 99 | 1019.4 |
| 20260503081019 | 50 | 279 | 0.0 | 1.0 | 0.00 | 0.00 | 0.00 | 99 | 1019.1 |
| 20260503080515 | 50 | 286 | 0.0 | 0.0 | 0.00 | 0.00 | 0.00 | 99 | 1019.3 |
| 20260503072449 | 51 | 276 | 0.0 | 1.0 | 0.00 | 0.00 | 0.00 | 99 | 1018.8 |
| 20260503071945 | 51 | 279 | 0.0 | 1.0 | 0.00 | 0.00 | 0.00 | 99 | 1018.8 |
| 20260503071442 | 51 | 286 | 0.0 | 1.0 | 0.00 | 0.00 | 0.00 | 99 | 1018.7 |
| 20260503070938 | 51 | 270 | 0.0 | 2.0 | 0.00 | 0.00 | 0.00 | 99 | 1018.7 |
| 20260503070436 | 51 | 278 | 0.0 | 2.0 | 0.00 | 0.00 | 0.00 | 99 | 1018.8 |
| 20260503054849 | 52 | 356 | 0.0 | 2.0 | 0.00 | 0.00 | 0.00 | 99 | 1018.7 |
| 20260503054345 | 52 | 283 | 0.0 | 2.0 | 0.00 | 0.00 | 0.00 | 99 | 1018.5 |
| 20260503053843 | 52 | 285 | 0.0 | 1.0 | 0.00 | 0.00 | 0.00 | 99 | 1018.6 |
| 20260503053341 | 52 | 279 | 0.0 | 1.0 | 0.00 | 0.00 | 0.00 | 99 | 1018.5 |
| 20260503052837 | 52 | 337 | 0.0 | 2.0 | 0.00 | 0.00 | 0.00 | 99 | 1018.5 |
| 20260503052334 | 53 | 330 | 2.0 | 3.0 | 0.00 | 0.00 | 0.00 | 99 | 1018.7 |
| 20260503051830 | 53 | 289 | 1.0 | 3.0 | 0.00 | 0.00 | 0.00 | 99 | 1018.4 |
| 20260503051327 | 53 | 348 | 2.0 | 2.0 | 0.00 | 0.00 | 0.00 | 99 | 1018.6 |
| 20260503050824 | 53 | 313 | 3.0 | 3.0 | 0.00 | 0.00 | 0.00 | 99 | 1018.3 |
| 20260503050320 | 53 | 312 | 0.0 | 2.0 | 0.00 | 0.00 | 0.00 | 99 | 1018.1 |
| 20260503045818 | 53 | 331 | 1.0 | 3.0 | 0.00 | 0.00 | 0.00 | 99 | 1018.1 |
| 20260503045315 | 53 | 279 | 0.0 | 2.0 | 0.00 | 0.00 | 0.00 | 99 | 1018.3 |
| 20260503044811 | 53 | 265 | 0.0 | 3.0 | 0.00 | 0.00 | 0.00 | 99 | 1018.4 |
| 20260503044309 | 53 | 311 | 0.0 | 3.0 | 0.00 | 0.00 | 0.00 | 99 | 1018.2 |
| 20260503043806 | 53 | 315 | 2.0 | 3.0 | 0.00 | 0.00 | 0.00 | 99 | 1018.3 |
| 20260503043303 | 53 | 324 | 0.0 | 3.0 | 0.00 | 0.00 | 0.00 | 99 | 1017.8 |
| 20260503042759 | 54 | 356 | 0.0 | 2.0 | 0.00 | 0.00 | 0.00 | 99 | 1018.0 |
| 20260503042256 | 54 | 282 | 1.0 | 1.0 | 0.00 | 0.00 | 0.00 | 99 | 1017.9 |
| 20260503041751 | 54 | 270 | 0.0 | 2.0 | 0.00 | 0.00 | 0.00 | 99 | 1018.1 |
| 20260503041249 | 54 | 279 | 2.0 | 3.0 | 0.00 | 0.00 | 0.00 | 99 | 1018.0 |
| 20260503040747 | 54 | 270 | 1.0 | 3.0 | 0.00 | 0.00 | 0.00 | 99 | 1017.7 |
| 20260503040244 | 54 | 306 | 1.0 | 3.0 | 0.00 | 0.00 | 0.00 | 99 | 1017.9 |
| 20260503035741 | 54 | 3 | 4.0 | 4.0 | 0.00 | 0.98 | 0.98 | 99 | 1017.6 |
| 20260503035238 | 54 | 348 | 4.0 | 4.0 | 0.00 | 0.98 | 0.98 | 99 | 1017.8 |
| 20260503034735 | 54 | 356 | 0.0 | 2.0 | 0.00 | 0.98 | 0.98 | 99 | 1017.3 |
| 20260503034232 | 55 | 301 | 2.0 | 3.0 | 0.00 | 0.98 | 0.98 | 99 | 1017.5 |
| 20260503033730 | 55 | 255 | 1.0 | 2.0 | 0.00 | 0.98 | 0.98 | 99 | 1017.5 |
| 20260503033227 | 55 | 275 | 2.0 | 2.0 | 0.00 | 0.98 | 0.98 | 99 | 1017.4 |
| 20260503032725 | 55 | 270 | 1.0 | 2.0 | 0.00 | 0.98 | 0.98 | 99 | 1017.5 |
| 20260503032224 | 55 | 270 | 1.0 | 2.0 | 0.00 | 0.98 | 0.98 | 99 | 1017.3 |
| 20260503031720 | 55 | 306 | 0.0 | 1.0 | 0.00 | 0.98 | 0.98 | 99 | 1017.2 |
| 20260503031218 | 56 | 311 | 0.0 | 2.0 | 0.00 | 0.98 | 0.98 | 99 | 1017.1 |
| 20260503030714 | 56 | 7 | 0.0 | 2.0 | 0.00 | 0.98 | 0.98 | 99 | 1017.1 |
| 20260503030211 | 56 | 270 | 0.0 | 1.0 | 0.00 | 0.98 | 0.98 | 99 | 1017.0 |
| 20260503025708 | 56 | 356 | 0.0 | 2.0 | 0.00 | 0.98 | 0.98 | 99 | 1017.0 |
| 20260503025206 | 56 | 279 | 0.0 | 0.0 | 0.00 | 0.98 | 0.98 | 99 | 1017.0 |
| 20260503024702 | 56 | 342 | 1.0 | 2.0 | 0.00 | 0.98 | 0.98 | 99 | 1016.8 |
| 20260503024159 | 56 | 0 | 1.0 | 2.0 | 0.00 | 0.98 | 0.98 | 99 | 1016.7 |
| 20260503023656 | 56 | 303 | 2.0 | 2.0 | 0.00 | 0.98 | 0.98 | 99 | 1016.7 |
| 20260503023152 | 56 | 281 | 2.0 | 2.0 | 0.00 | 0.98 | 0.98 | 99 | 1016.5 |
| 20260503022649 | 56 | 265 | 2.0 | 2.0 | 0.00 | 0.98 | 0.98 | 99 | 1016.4 |
| 20260503022148 | 55 | 302 | 3.0 | 3.0 | 0.00 | 0.98 | 0.98 | 99 | 1016.4 |
| 20260503021645 | 55 | 270 | 1.0 | 2.0 | 0.00 | 0.98 | 0.98 | 99 | 1016.4 |
| 20260503021142 | 55 | 286 | 0.0 | 1.0 | 0.00 | 0.98 | 0.98 | 99 | 1016.2 |
| 20260503020639 | 55 | 300 | 0.0 | 2.0 | 0.00 | 0.98 | 0.98 | 99 | 1016.1 |
| 20260503020137 | 55 | 307 | 2.0 | 2.0 | 0.00 | 0.98 | 0.98 | 99 | 1016.1 |
| 20260503015633 | 55 | 300 | 0.0 | 3.0 | 0.00 | 0.98 | 0.98 | 99 | 1016.1 |
| 20260503015130 | 55 | 297 | 1.0 | 2.0 | 0.00 | 0.98 | 0.98 | 99 | 1015.9 |
| 20260503014626 | 55 | 356 | 2.0 | 2.0 | 0.00 | 0.98 | 0.98 | 99 | 1015.7 |
| 20260503014124 | 55 | 0 | 2.0 | 5.0 | 0.00 | 0.98 | 0.98 | 99 | 1015.6 |
| 20260503013621 | 55 | 350 | 3.0 | 3.0 | 0.00 | 0.98 | 0.98 | 99 | 1015.7 |
| 20260503013119 | 55 | 286 | 0.0 | 4.0 | 0.00 | 0.98 | 0.98 | 99 | 1015.6 |
| 20260503012616 | 55 | 285 | 1.0 | 2.0 | 0.00 | 0.98 | 0.98 | 99 | 1015.8 |
| 20260503012113 | 55 | 277 | 0.0 | 3.0 | 0.00 | 0.98 | 0.98 | 99 | 1015.7 |
| 20260503011609 | 55 | 255 | 0.0 | 2.0 | 0.00 | 0.98 | 0.98 | 99 | 1015.8 |
| 20260503011107 | 55 | 326 | 2.0 | 3.0 | 0.00 | 0.98 | 0.98 | 99 | 1015.7 |
| 20260503010603 | 55 | 341 | 2.0 | 5.0 | 0.00 | 0.98 | 0.98 | 99 | 1015.8 |
| 20260503010100 | 55 | 337 | 1.0 | 2.0 | 0.00 | 0.98 | 0.98 | 99 | 1015.7 |
| 20260503005557 | 55 | 354 | 1.0 | 3.0 | 0.00 | 0.98 | 0.98 | 99 | 1015.7 |
| 20260503005054 | 55 | 270 | 0.0 | 3.0 | 0.00 | 0.98 | 0.98 | 99 | 1015.5 |
| 20260503004550 | 55 | 334 | 2.0 | 4.0 | 0.00 | 0.98 | 0.98 | 99 | 1015.4 |
| 20260503004049 | 55 | 337 | 1.0 | 3.0 | 0.00 | 0.98 | 0.98 | 99 | 1015.4 |
| 20260503003545 | 55 | 339 | 2.0 | 2.0 | 0.00 | 0.98 | 0.98 | 99 | 1015.2 |
| 20260503003042 | 55 | 270 | 0.0 | 2.0 | 0.00 | 0.98 | 0.98 | 99 | 1015.1 |
| 20260503002539 | 55 | 270 | 0.0 | 3.0 | 0.00 | 0.98 | 0.98 | 99 | 1015.0 |
| 20260503002036 | 55 | 332 | 2.0 | 3.0 | 0.00 | 0.98 | 0.98 | 99 | 1014.6 |
| 20260503001532 | 55 | 347 | 4.0 | 5.0 | 0.00 | 0.98 | 0.98 | 99 | 1014.7 |
| 20260503001030 | 55 | 346 | 0.0 | 5.0 | 0.00 | 0.98 | 0.98 | 99 | 1014.8 |
| 20260503000527 | 55 | 352 | 2.0 | 3.0 | 0.00 | 0.98 | 0.98 | 99 | 1014.8 |
| 20260503000024 | 55 | 334 | 0.0 | 3.0 | 0.00 | 0.98 | 0.98 | 99 | 1015.0 |
| 20260502235520 | 56 | 283 | 1.0 | 3.0 | 0.00 | 0.98 | 0.98 | 99 | 1014.8 |
| 20260502235019 | 55 | 270 | 0.0 | 2.0 | 0.00 | 0.98 | 0.98 | 99 | 1014.8 |
| 20260502234514 | 55 | 307 | 0.0 | 3.0 | 0.00 | 0.98 | 0.98 | 99 | 1014.7 |
| 20260502234012 | 55 | 7 | 3.0 | 3.0 | 0.00 | 0.98 | 0.98 | 99 | 1014.4 |
| 20260502233513 | 56 | 263 | 0.0 | 4.0 | 0.00 | 0.98 | 0.98 | 99 | 1014.5 |
| 20260502233010 | 56 | 350 | 0.0 | 3.0 | 0.00 | 0.98 | 0.98 | 99 | 1014.3 |
| 20260502232506 | 56 | 311 | 2.0 | 5.0 | 0.00 | 0.98 | 0.98 | 99 | 1014.6 |
| 20260502232003 | 56 | 306 | 0.0 | 3.0 | 0.00 | 0.98 | 0.98 | 99 | 1014.3 |
| 20260502231500 | 56 | 282 | 1.0 | 4.0 | 0.00 | 0.98 | 0.98 | 99 | 1014.0 |
| 20260502230958 | 56 | 334 | 3.0 | 3.0 | 0.00 | 0.98 | 0.98 | 99 | 1013.9 |
| 20260502230456 | 56 | 287 | 2.0 | 6.0 | 0.00 | 0.98 | 0.98 | 99 | 1014.0 |
| 20260502225954 | 56 | 346 | 0.0 | 5.0 | 0.00 | 0.98 | 0.98 | 99 | 1014.1 |
| 20260502225449 | 56 | 297 | 0.0 | 3.0 | 0.00 | 0.98 | 0.98 | 99 | 1013.9 |
| 20260502224946 | 56 | 323 | 2.0 | 5.0 | 0.00 | 0.98 | 0.98 | 99 | 1014.0 |
| 20260502224442 | 56 | 293 | 0.0 | 5.0 | 0.00 | 0.98 | 0.98 | 99 | 1014.1 |
| 20260502223940 | 56 | 343 | 5.0 | 5.0 | 0.00 | 0.98 | 0.98 | 99 | 1014.3 |
| 20260502223438 | 57 | 255 | 1.0 | 3.0 | 0.00 | 0.98 | 0.98 | 99 | 1014.1 |
| 20260502222936 | 56 | 339 | 2.0 | 4.0 | 0.00 | 0.98 | 0.98 | 99 | 1014.1 |
| 20260502222433 | 56 | 315 | 2.0 | 4.0 | 0.02 | 0.98 | 0.98 | 99 | 1014.2 |
| 20260502221928 | 57 | 324 | 0.0 | 3.0 | 0.02 | 0.98 | 0.98 | 99 | 1013.9 |
| 20260502221425 | 56 | 341 | 4.0 | 5.0 | 0.00 | 0.97 | 0.97 | 99 | 1014.0 |
| 20260502220922 | 57 | 283 | 0.0 | 3.0 | 0.00 | 0.97 | 0.97 | 99 | 1013.9 |
| 20260502220418 | 57 | 283 | 2.0 | 3.0 | 0.00 | 0.97 | 0.97 | 99 | 1013.8 |
| 20260502215914 | 57 | 299 | 0.0 | 4.0 | 0.00 | 0.97 | 0.97 | 99 | 1013.8 |
| 20260502215412 | 57 | 270 | 2.0 | 4.0 | 0.00 | 0.97 | 0.97 | 99 | 1013.7 |
| 20260502214909 | 57 | 325 | 0.0 | 3.0 | 0.00 | 0.97 | 0.97 | 99 | 1013.6 |
| 20260502214405 | 57 | 279 | 0.0 | 3.0 | 0.00 | 0.97 | 0.97 | 99 | 1013.5 |
| 20260502213903 | 58 | 331 | 2.0 | 2.0 | 0.00 | 0.97 | 0.97 | 99 | 1013.5 |
| 20260502213359 | 57 | 297 | 0.0 | 2.0 | 0.00 | 0.97 | 0.97 | 99 | 1013.4 |
| 20260502212859 | 57 | 325 | 0.0 | 2.0 | 0.00 | 0.97 | 0.97 | 99 | 1013.2 |
| 20260502212357 | 57 | 274 | 0.0 | 2.0 | 0.00 | 0.97 | 0.97 | 99 | 1013.1 |
| 20260502211853 | 57 | 270 | 0.0 | 5.0 | 0.00 | 0.97 | 0.97 | 99 | 1012.8 |
| 20260502211349 | 57 | 350 | 3.0 | 3.0 | 0.00 | 0.97 | 0.97 | 99 | 1012.9 |
| 20260502210847 | 57 | 315 | 3.0 | 3.0 | 0.00 | 0.97 | 0.97 | 99 | 1012.9 |
| 20260502210344 | 57 | 299 | 2.0 | 3.0 | 0.00 | 0.97 | 0.97 | 99 | 1012.9 |
| 20260502205841 | 57 | 306 | 1.0 | 6.0 | 0.00 | 0.97 | 0.97 | 99 | 1013.0 |
| 20260502205337 | 57 | 270 | 0.0 | 4.0 | 0.00 | 0.97 | 0.97 | 99 | 1012.9 |
| 20260502204834 | 57 | 299 | 2.0 | 3.0 | 0.00 | 0.97 | 0.97 | 99 | 1012.9 |
| 20260502204331 | 57 | 358 | 0.0 | 3.0 | 0.00 | 0.97 | 0.97 | 99 | 1012.8 |
| 20260502203828 | 57 | 270 | 2.0 | 3.0 | 0.00 | 0.97 | 0.97 | 99 | 1013.1 |
| 20260502203326 | 57 | 1 | 5.0 | 5.0 | 0.00 | 0.97 | 0.97 | 99 | 1013.0 |
| 20260502202826 | 57 | 355 | 1.0 | 4.0 | 0.00 | 0.97 | 0.97 | 99 | 1012.7 |
| 20260502202324 | 57 | 290 | 2.0 | 7.0 | 0.00 | 0.97 | 0.97 | 99 | 1012.7 |
| 20260502201822 | 58 | 270 | 1.0 | 5.0 | 0.02 | 0.97 | 0.97 | 99 | 1012.8 |
| 20260502201318 | 58 | 311 | 2.0 | 6.0 | 0.02 | 0.97 | 0.97 | 99 | 1012.5 |
| 20260502200814 | 58 | 331 | 1.0 | 4.0 | 0.00 | 0.97 | 0.97 | 99 | 1012.3 |
| 20260502200310 | 58 | 339 | 3.0 | 4.0 | 0.00 | 0.97 | 0.97 | 99 | 1012.6 |
| 20260502195808 | 58 | 344 | 3.0 | 5.0 | 0.00 | 0.97 | 0.97 | 99 | 1012.7 |
| 20260502195305 | 58 | 248 | 4.0 | 5.0 | 0.02 | 0.97 | 0.97 | 99 | 1012.6 |
| 20260502194801 | 59 | 315 | 2.0 | 5.0 | 0.02 | 0.97 | 0.97 | 99 | 1012.3 |
| 20260502194258 | 59 | 307 | 2.0 | 4.0 | 0.02 | 0.96 | 0.96 | 99 | 1012.6 |
| 20260502193754 | 59 | 286 | 1.0 | 5.0 | 0.05 | 0.96 | 0.96 | 99 | 1012.5 |
| 20260502193252 | 59 | 334 | 2.0 | 4.0 | 0.02 | 0.96 | 0.96 | 99 | 1012.8 |
| 20260502192751 | 59 | 334 | 1.0 | 3.0 | 0.02 | 0.96 | 0.96 | 99 | 1013.1 |
| 20260502192249 | 59 | 235 | 0.0 | 3.0 | 0.05 | 0.96 | 0.96 | 99 | 1012.9 |
| 20260502191746 | 59 | 321 | 2.0 | 4.0 | 0.07 | 0.95 | 0.95 | 99 | 1012.8 |